period_start,C,m1,H,J0,J1,J2,J3,J4,J5,JA,JB,JC,JD,JJ,JK,JN,#
2017-11-28 00:00:37,-0.01,1.06,0.00,15.06,18.17,21.32,14.31,49.15,1015.15,2065.77,3080.84,2873.01,3240.01,599.69,611.28,38.40,0000 0000 0000 0000 000000
2017-11-28 00:05:39,-0.01,1.06,0.00,15.06,18.17,21.34,14.26,49.12,1015.17,2065.64,3080.11,2873.00,3239.95,599.81,611.40,38.45,0000 0000 0000 0000 000000
2017-11-28 00:10:40,-0.01,1.06,0.00,15.07,18.19,21.31,14.33,49.13,1015.27,2065.33,3079.99,2872.96,3239.29,599.82,611.49,38.50,0000 0000 0000 0000 000000
2017-11-28 00:15:41,0.02,1.06,0.00,15.07,18.19,21.29,14.33,49.04,1015.24,2065.14,3079.68,2872.42,3239.00,600.07,611.56,38.55,0000 0000 0000 0000 000000
2017-11-28 00:20:43,0.00,1.06,0.00,15.05,18.21,21.33,14.38,49.14,1015.27,2065.05,3079.05,2872.02,3238.95,600.11,611.74,38.60,0000 0000 0000 0000 000000
2017-11-28 00:25:44,0.01,1.06,0.00,15.07,18.22,21.35,14.32,49.02,1015.41,2065.03,3078.99,2872.00,3238.52,599.93,611.63,38.65,0000 0000 0000 0000 000000
2017-11-28 00:30:45,0.01,1.06,0.00,15.09,18.23,21.33,14.30,49.00,1015.51,2065.06,3078.86,2872.00,3238.05,599.64,611.32,38.70,0000 0000 0000 0000 000000
2017-11-28 00:35:46,0.01,1.06,0.00,15.08,18.24,21.37,14.45,49.06,1015.63,2065.04,3078.11,2871.95,3237.99,600.35,612.28,38.75,0000 0000 0000 0000 000000
2017-11-28 00:40:48,0.03,1.07,0.00,15.09,18.24,21.39,14.34,49.23,1015.63,2065.01,3078.00,2871.34,3237.63,600.12,611.93,38.80,0000 0000 0000 0000 000000
2017-11-28 00:45:49,0.01,1.07,0.00,15.09,18.26,21.37,14.30,49.08,1015.64,2065.02,3077.82,2871.05,3237.06,599.72,611.50,38.85,0000 0000 0000 0000 000000
2017-11-28 00:50:50,0.01,1.07,0.00,15.10,18.27,21.37,14.35,49.25,1015.64,2065.00,3077.09,2870.99,3236.99,600.02,611.81,38.90,0000 0000 0000 0000 000000
2017-11-28 00:55:52,0.01,1.07,0.00,15.10,18.27,21.46,14.24,49.28,1015.64,2065.00,3077.00,2870.96,3236.72,599.58,611.41,38.95,0000 0000 0000 0000 000000
2017-11-28 01:00:53,0.03,1.07,0.00,15.11,18.29,21.42,14.40,49.22,1015.64,2065.00,3076.56,2870.52,3236.05,600.29,612.09,39.00,0000 0000 0000 0000 000000
2017-11-28 01:05:55,0.01,1.07,0.00,15.11,18.29,21.42,14.38,49.42,1015.62,2065.00,3076.05,2870.08,3236.00,599.98,611.71,39.05,0000 0000 0000 0000 000000
2017-11-28 01:10:56,0.00,1.07,0.00,15.09,18.29,21.44,14.32,49.33,1015.63,2064.99,3075.94,2870.00,3235.82,599.91,611.85,39.11,0000 0000 0000 0000 000000
2017-11-28 01:15:57,0.02,1.07,0.00,15.11,18.31,21.43,14.31,49.13,1015.70,2064.99,3075.28,2869.99,3235.09,599.97,611.84,39.16,0000 0000 0000 0000 000000
2017-11-28 01:20:59,0.00,1.07,0.00,15.10,18.32,21.45,14.36,49.09,1015.95,2064.98,3075.01,2869.85,3235.00,600.18,612.14,39.21,0000 0000 0000 0000 000000
2017-11-28 01:26:00,0.02,1.07,0.00,15.09,18.32,21.46,14.32,49.10,1016.11,2064.99,3074.95,2869.28,3234.96,600.30,612.38,39.26,0000 0000 0000 0000 000000
2017-11-28 01:31:02,0.02,1.07,0.00,15.10,18.32,21.47,14.30,49.02,1016.13,2064.98,3074.53,2869.06,3234.63,599.55,611.58,39.31,0000 0000 0000 0000 000000
2017-11-28 01:36:03,0.01,1.08,0.00,15.12,18.33,21.45,14.37,49.09,1016.17,2064.98,3074.01,2869.00,3234.03,599.86,612.10,39.36,0000 0000 0000 0000 000000
2017-11-28 01:41:04,0.00,1.08,0.00,15.13,18.34,21.45,14.41,49.07,1016.22,2064.97,3073.99,2869.00,3234.00,599.90,611.96,39.41,0000 0000 0000 0000 000000
2017-11-28 01:46:05,0.02,1.08,0.00,15.14,18.34,21.46,14.31,49.01,1016.37,2064.96,3073.47,2868.92,3233.69,599.93,612.07,39.46,0000 0000 0000 0000 000000
2017-11-28 01:51:07,0.03,1.08,0.00,15.14,18.34,21.45,14.38,49.11,1016.29,2064.97,3073.03,2868.42,3233.11,600.03,612.26,39.51,0000 0000 0000 0000 000000
2017-11-28 01:56:08,0.00,1.08,0.00,15.15,18.35,21.49,14.34,49.19,1016.24,2064.95,3072.99,2868.11,3233.02,600.17,612.34,39.56,0000 0000 0000 0000 000000
2017-11-28 02:01:09,0.00,1.08,0.00,15.15,18.36,21.49,14.34,49.33,1016.41,2064.95,3072.85,2868.00,3233.00,599.37,611.49,39.61,0000 0000 0000 0000 000000
2017-11-28 02:06:10,0.01,1.08,0.00,15.16,18.37,21.47,14.32,49.23,1016.45,2064.94,3072.16,2868.00,3232.81,599.95,612.11,39.66,0000 0000 0000 0000 000000
2017-11-28 02:11:12,0.00,1.08,0.00,15.16,18.37,21.55,14.36,49.20,1016.52,2064.89,3072.00,2868.00,3232.14,599.86,612.01,39.71,0000 0000 0000 0000 000000
2017-11-28 02:16:13,0.00,1.08,0.00,15.16,18.37,21.52,14.41,49.27,1016.54,2064.85,3071.90,2867.94,3232.00,599.93,612.28,39.76,0000 0000 0000 0000 000000
2017-11-28 02:21:14,0.03,1.08,0.00,15.18,18.39,21.51,14.42,49.29,1016.53,2064.81,3071.16,2867.46,3231.98,599.91,612.06,39.81,0000 0000 0000 0000 000000
2017-11-28 02:26:16,0.00,1.08,0.00,15.17,18.39,21.54,14.37,49.16,1016.60,2064.72,3071.00,2867.07,3231.55,600.19,612.50,39.86,0000 0000 0000 0000 000000
2017-11-28 02:31:17,0.01,1.08,0.00,15.16,18.39,21.52,14.28,49.18,1016.61,2064.65,3070.92,2867.01,3231.05,599.57,611.90,39.91,0000 0000 0000 0000 000000
2017-11-28 02:36:18,0.00,1.08,0.00,15.18,18.39,21.55,14.39,49.08,1016.62,2064.49,3070.18,2866.99,3230.99,600.14,612.31,39.96,0000 0000 0000 0000 000000
2017-11-28 02:41:20,0.01,1.08,0.00,15.18,18.40,21.59,14.36,49.19,1016.62,2064.50,3070.00,2866.95,3230.79,599.93,612.12,40.02,0000 0000 0000 0000 000000
2017-11-28 02:46:21,0.02,1.08,0.00,15.19,18.42,21.57,14.28,49.10,1016.62,2064.29,3069.63,2866.31,3230.08,599.71,611.85,40.07,0000 0000 0000 0000 000000
2017-11-28 02:51:23,-0.00,1.08,0.00,15.19,18.42,21.55,14.46,49.08,1016.62,2064.14,3069.03,2866.05,3229.99,600.25,612.40,40.12,0000 0000 0000 0000 000000
2017-11-28 02:56:24,-0.00,1.08,0.00,15.20,18.42,21.56,14.30,49.23,1016.62,2064.10,3068.99,2866.00,3229.87,599.79,611.95,40.17,0000 0000 0000 0000 000000
2017-11-28 03:01:25,0.02,1.09,0.00,15.21,18.42,21.54,14.41,49.29,1016.62,2064.15,3068.88,2866.00,3229.34,600.09,612.29,40.22,0000 0000 0000 0000 000000
2017-11-28 03:06:26,0.01,1.09,0.00,15.20,18.44,21.58,14.37,49.24,1016.62,2064.10,3068.14,2865.98,3229.03,600.25,612.45,40.27,0000 0000 0000 0000 000000
2017-11-28 03:11:27,0.01,1.09,0.00,15.19,18.44,21.55,14.34,49.23,1016.62,2064.04,3068.00,2865.68,3228.94,600.31,612.38,40.32,0000 0000 0000 0000 000000
2017-11-28 03:16:29,0.03,1.09,0.00,15.19,18.44,21.60,14.40,49.30,1016.67,2064.07,3067.66,2865.05,3228.28,600.15,612.38,40.37,0000 0000 0000 0000 000000
2017-11-28 03:21:30,0.01,1.09,0.00,15.18,18.44,21.59,14.42,49.11,1016.82,2064.04,3067.04,2865.00,3228.01,600.20,612.63,40.42,0000 0000 0000 0000 000000
2017-11-28 03:26:31,-0.00,1.09,0.00,15.19,18.44,21.60,14.34,49.24,1017.00,2064.02,3066.99,2865.00,3227.99,600.06,612.55,40.47,0000 0000 0000 0000 000000
2017-11-28 03:31:32,0.02,1.09,0.00,15.18,18.44,21.58,14.35,49.23,1017.09,2064.02,3066.52,2864.96,3227.85,599.95,612.53,40.52,0000 0000 0000 0000 000000
2017-11-28 03:36:34,0.02,1.09,0.00,15.18,18.45,21.60,14.34,49.25,1017.10,2064.01,3066.04,2864.79,3227.27,599.98,612.48,40.57,0000 0000 0000 0000 000000
2017-11-28 03:41:35,0.02,1.09,0.00,15.19,18.46,21.63,14.40,49.13,1017.11,2064.01,3066.00,2864.16,3227.01,600.07,612.60,40.62,0000 0000 0000 0000 000000
2017-11-28 03:46:36,0.01,1.09,0.00,15.20,18.47,21.63,14.36,49.25,1017.13,2064.02,3065.49,2864.02,3226.99,599.94,612.46,40.67,0000 0000 0000 0000 000000
2017-11-28 03:51:37,0.01,1.09,0.00,15.20,18.47,21.62,14.45,49.16,1017.18,2064.03,3065.01,2864.00,3226.76,599.89,612.36,40.72,0000 0000 0000 0000 000000
2017-11-28 03:56:38,0.02,1.09,0.00,15.21,18.47,21.60,14.26,49.28,1017.15,2064.02,3064.69,2863.96,3226.07,599.68,612.19,40.77,0000 0000 0000 0000 000000
2017-11-28 04:01:39,0.02,1.09,0.00,15.21,18.47,21.60,14.36,49.19,1017.28,2064.02,3064.05,2863.73,3225.99,599.84,612.38,40.82,0000 0000 0000 0000 000000
2017-11-28 04:06:40,0.02,1.10,0.00,15.21,18.47,21.59,14.40,49.29,1017.44,2064.01,3063.99,2863.14,3225.84,600.12,612.81,40.87,0000 0000 0000 0000 000000
2017-11-28 04:11:42,0.02,1.10,0.00,15.21,18.47,21.62,14.30,49.27,1017.56,2064.00,3063.65,2863.01,3225.16,600.21,612.86,40.92,0000 0000 0000 0000 000000
2017-11-28 04:16:43,0.01,1.10,0.00,15.21,18.48,21.59,14.35,49.27,1017.58,2064.01,3063.04,2863.00,3225.00,599.89,612.52,40.98,0000 0000 0000 0000 000000
2017-11-28 04:21:45,0.00,1.10,0.00,15.21,18.49,21.59,14.42,49.39,1017.59,2064.00,3063.00,2863.00,3224.99,600.28,613.00,41.03,0000 0000 0000 0000 000000
2017-11-28 04:26:46,0.02,1.10,0.00,15.22,18.49,21.61,14.36,49.33,1017.59,2064.00,3062.65,2862.86,3224.67,599.90,612.60,41.08,0000 0000 0000 0000 000000
2017-11-28 04:31:47,0.02,1.10,0.00,15.19,18.49,21.62,14.36,49.27,1017.62,2064.01,3062.04,2862.40,3224.09,599.76,612.54,41.13,0000 0000 0000 0000 000000
2017-11-28 04:36:48,0.01,1.10,0.00,15.21,18.49,21.64,14.44,49.33,1017.66,2064.00,3062.00,2862.06,3224.00,600.27,613.03,41.18,0000 0000 0000 0000 000000
2017-11-28 04:41:49,0.00,1.10,0.00,15.20,18.49,21.61,14.37,49.30,1017.85,2064.00,3061.91,2862.01,3223.98,599.91,612.74,41.23,0000 0000 0000 0000 000000
2017-11-28 04:46:51,0.02,1.10,0.00,15.19,18.49,21.63,14.47,49.37,1018.03,2064.00,3061.26,2862.00,3223.57,600.32,613.32,41.28,0000 0000 0000 0000 000000
2017-11-28 04:51:53,0.00,1.10,0.00,15.19,18.49,21.62,14.36,49.31,1018.08,2064.00,3061.00,2861.99,3223.05,600.16,613.27,41.33,0000 0000 0000 0000 000000
2017-11-28 04:56:54,0.00,1.10,0.00,15.19,18.49,21.65,14.39,49.16,1018.09,2063.99,3060.98,2861.96,3223.00,599.97,613.08,41.38,0000 0000 0000 0000 000000
2017-11-28 05:01:55,0.03,1.10,0.00,15.19,18.49,21.61,14.42,49.04,1018.22,2064.00,3060.52,2861.66,3222.99,600.20,613.32,41.43,0000 0000 0000 0000 000000
2017-11-28 05:06:56,0.02,1.10,0.00,15.20,18.49,21.65,14.37,49.25,1018.50,2064.00,3060.02,2861.10,3222.76,599.90,613.12,41.48,0000 0000 0000 0000 000000
2017-11-28 05:11:58,0.01,1.11,0.00,15.20,18.49,21.63,14.32,49.27,1018.57,2064.00,3060.00,2861.03,3222.23,599.61,612.87,41.53,0000 0000 0000 0000 000000
2017-11-28 05:16:59,0.00,1.11,0.00,15.21,18.49,21.60,14.37,49.34,1018.58,2064.00,3059.96,2861.00,3222.01,599.93,613.32,41.58,0000 0000 0000 0000 000000
2017-11-28 05:22:01,0.01,1.11,0.00,15.22,18.49,21.60,14.43,49.30,1018.84,2064.00,3059.35,2861.00,3222.00,599.81,613.26,41.63,0000 0000 0000 0000 000000
2017-11-28 05:27:02,0.00,1.11,0.00,15.24,18.49,21.61,14.42,49.22,1019.05,2063.99,3059.01,2860.97,3221.95,599.95,613.49,41.68,0000 0000 0000 0000 000000
2017-11-28 05:32:03,0.01,1.11,0.00,15.24,18.50,21.61,14.39,49.08,1019.06,2063.99,3059.00,2860.89,3221.56,599.57,613.20,41.73,0000 0000 0000 0000 000000
2017-11-28 05:37:04,0.03,1.11,0.00,15.25,18.50,21.63,14.30,49.14,1019.07,2063.99,3058.65,2860.36,3221.06,599.89,613.42,41.78,0000 0000 0000 0000 000000
2017-11-28 05:42:05,0.01,1.11,0.00,15.26,18.51,21.65,14.47,49.20,1019.22,2063.99,3058.08,2860.04,3221.00,600.23,613.89,41.83,0000 0000 0000 0000 000000
2017-11-28 05:47:06,0.00,1.11,0.00,15.27,18.52,21.64,14.37,49.13,1019.31,2063.99,3057.99,2860.00,3220.98,600.11,613.82,41.88,0000 0000 0000 0000 000000
2017-11-28 05:52:07,0.01,1.11,0.00,15.28,18.52,21.64,14.43,49.32,1019.31,2063.99,3057.95,2860.00,3220.61,600.01,613.68,41.93,0000 0000 0000 0000 000000
2017-11-28 05:57:09,0.01,1.11,0.00,15.30,18.52,21.69,14.36,49.28,1019.44,2063.99,3057.51,2859.98,3220.10,599.81,613.46,41.99,0000 0000 0000 0000 000000
2017-11-28 06:02:10,0.01,1.11,0.00,15.29,18.52,21.64,14.36,49.20,1019.51,2063.99,3057.02,2859.84,3220.00,600.18,613.98,42.04,0000 0000 0000 0000 000000
2017-11-28 06:07:11,0.02,1.11,0.00,15.31,18.54,21.67,14.42,49.23,1019.54,2063.99,3056.99,2859.38,3219.97,600.37,614.08,42.09,0000 0000 0000 0000 000000
2017-11-28 06:12:13,0.01,1.11,0.00,15.32,18.54,21.68,14.48,49.28,1019.54,2063.98,3056.86,2859.06,3219.61,600.34,614.09,42.14,0000 0000 0000 0000 000000
2017-11-28 06:17:14,0.02,1.11,0.00,15.32,18.54,21.68,14.40,49.26,1019.54,2063.98,3056.15,2859.00,3219.05,599.84,613.51,42.19,0000 0000 0000 0000 000000
2017-11-28 06:22:15,0.00,1.12,0.00,15.32,18.54,21.69,14.40,49.27,1019.55,2063.98,3056.01,2858.99,3219.00,600.27,613.88,42.24,0000 0000 0000 0000 000000
2017-11-28 06:27:16,0.00,1.12,0.00,15.31,18.55,21.71,14.42,49.23,1019.55,2063.98,3055.98,2858.92,3218.93,600.17,613.72,42.29,0000 0000 0000 0000 000000
2017-11-28 06:32:17,0.03,1.12,0.00,15.31,18.57,21.71,14.42,49.27,1019.62,2063.96,3055.68,2858.51,3218.36,600.34,613.82,42.34,0000 0000 0000 0000 000000
2017-11-28 06:37:18,0.02,1.12,0.00,15.32,18.57,21.74,14.36,49.38,1019.77,2063.94,3055.09,2858.08,3218.04,599.78,613.55,42.39,0000 0000 0000 0000 000000
2017-11-28 06:42:20,-0.00,1.12,0.00,15.32,18.57,21.74,14.38,49.20,1019.86,2063.90,3055.00,2858.00,3217.99,599.83,613.71,42.44,0000 0000 0000 0000 000000
2017-11-28 06:47:21,-0.01,1.12,0.00,15.32,18.57,21.71,14.38,49.18,1019.74,2063.71,3054.70,2857.99,3217.90,600.02,613.81,42.49,0000 0000 0000 0000 000000
2017-11-28 06:52:23,0.02,1.12,0.00,15.34,18.57,21.72,14.35,49.10,1019.68,2063.84,3054.17,2857.98,3217.49,599.75,613.41,42.54,0000 0000 0000 0000 000000
2017-11-28 06:57:24,0.02,1.12,0.00,15.33,18.57,21.69,14.37,49.29,1019.67,2063.93,3054.01,2857.90,3217.07,599.99,613.72,42.59,0000 0000 0000 0000 000000
2017-11-28 07:02:25,-0.01,1.12,0.00,15.34,18.58,21.72,14.37,49.25,1019.88,2063.78,3053.94,2857.28,3217.00,600.02,613.84,42.64,0000 0000 0000 0000 000000
2017-11-28 07:07:26,0.01,1.12,0.00,15.34,18.59,21.75,14.41,49.33,1020.00,2063.51,3053.18,2857.01,3216.87,599.99,613.74,42.69,0000 0000 0000 0000 000000
2017-11-28 07:12:27,0.02,1.12,0.00,15.35,18.59,21.75,14.42,49.42,1020.03,2063.53,3053.00,2857.00,3216.25,600.02,613.96,42.74,0000 0000 0000 0000 000000
2017-11-28 07:17:28,-0.01,1.12,0.00,15.35,18.59,21.75,14.36,49.27,1020.05,2063.54,3052.98,2856.99,3216.02,599.82,613.70,42.79,0000 0000 0000 0000 000000
2017-11-28 07:22:30,0.03,1.12,0.00,15.35,18.59,21.73,14.39,49.20,1020.07,2063.61,3052.67,2856.90,3216.00,599.84,613.75,42.84,0000 0000 0000 0000 000000
2017-11-28 07:27:31,0.01,1.12,0.00,15.35,18.59,21.75,14.35,49.13,1020.15,2063.39,3052.06,2856.34,3215.96,600.27,614.19,42.89,0000 0000 0000 0000 000000
2017-11-28 07:32:32,0.01,1.12,0.00,15.37,18.60,21.74,14.41,49.27,1020.25,2063.31,3052.00,2856.07,3215.51,599.97,614.01,42.95,0000 0000 0000 0000 000000
2017-11-28 07:37:34,-0.00,1.12,0.00,15.37,18.61,21.79,14.40,49.23,1020.49,2063.22,3051.89,2856.00,3215.03,599.70,613.83,43.00,0000 0000 0000 0000 000000
2017-11-28 07:42:35,0.02,1.12,0.00,15.38,18.62,21.75,14.49,49.19,1020.52,2063.24,3051.23,2856.00,3215.00,600.34,614.47,43.05,0000 0000 0000 0000 000000
2017-11-28 07:47:36,-0.01,1.12,0.00,15.40,18.62,21.77,14.42,49.17,1020.53,2063.14,3051.01,2855.97,3214.96,600.24,614.36,43.10,0000 0000 0000 0000 000000
2017-11-28 07:52:37,0.03,1.12,0.00,15.41,18.62,21.80,14.36,49.11,1020.62,2063.14,3050.98,2855.72,3214.46,599.91,614.16,43.15,0000 0000 0000 0000 000000
2017-11-28 07:57:38,0.02,1.13,0.00,15.42,18.62,21.76,14.37,49.20,1020.80,2063.12,3050.72,2855.20,3214.03,599.87,614.08,43.20,0000 0000 0000 0000 000000
2017-11-28 08:02:40,0.00,1.13,0.00,15.42,18.64,21.76,14.40,49.11,1020.96,2063.08,3050.09,2855.04,3214.00,600.17,614.53,43.25,0000 0000 0000 0000 000000
2017-11-28 08:07:41,0.00,1.13,0.00,15.42,18.64,21.77,14.38,49.10,1021.01,2063.05,3050.00,2854.99,3213.91,599.94,614.40,43.30,0000 0000 0000 0000 000000
2017-11-28 08:12:42,0.01,1.13,0.00,15.41,18.64,21.79,14.47,49.39,1020.93,2063.04,3049.91,2854.96,3213.38,600.03,614.27,43.35,0000 0000 0000 0000 000000
2017-11-28 08:17:43,0.01,1.13,0.00,15.42,18.64,21.81,14.36,49.20,1020.99,2063.03,3049.27,2854.92,3213.03,600.18,614.53,43.40,0000 0000 0000 0000 000000
2017-11-28 08:22:44,0.01,1.13,0.00,15.40,18.64,21.82,14.35,49.15,1021.01,2063.05,3049.03,2854.66,3213.00,599.48,613.79,43.45,0000 0000 0000 0000 000000
2017-11-28 08:27:46,0.01,1.13,0.00,15.42,18.66,21.81,14.44,49.16,1021.01,2063.02,3048.99,2854.09,3212.94,600.32,614.74,43.50,0000 0000 0000 0000 000000
2017-11-28 08:32:47,0.02,1.13,0.00,15.40,18.67,21.80,14.36,49.11,1020.99,2063.02,3048.78,2854.00,3212.45,600.07,614.28,43.55,0000 0000 0000 0000 000000
2017-11-28 08:37:48,0.01,1.13,0.00,15.42,18.67,21.84,14.37,48.98,1021.01,2063.01,3048.07,2854.00,3212.02,599.98,614.38,43.60,0000 0000 0000 0000 000000
2017-11-28 08:42:50,0.00,1.13,0.00,15.41,18.67,21.83,14.37,48.91,1021.08,2063.01,3048.00,2853.90,3211.98,599.77,614.18,43.65,0000 0000 0000 0000 000000
2017-11-28 08:47:51,0.02,1.13,0.00,15.42,18.67,21.86,14.45,48.91,1021.43,2063.00,3047.85,2853.36,3211.73,600.08,614.73,43.70,0000 0000 0000 0000 000000
2017-11-28 08:52:52,0.02,1.13,0.00,15.42,18.68,21.83,14.46,48.92,1021.50,2063.00,3047.19,2853.04,3211.10,600.44,615.17,43.75,0000 0000 0000 0000 000000
2017-11-28 08:57:54,0.00,1.13,0.00,15.42,18.69,21.84,14.44,48.92,1021.50,2063.00,3047.01,2853.01,3211.00,600.31,614.95,43.80,0000 0000 0000 0000 000000
2017-11-28 09:02:55,0.00,1.13,0.00,15.43,18.69,21.87,14.43,48.88,1021.50,2063.00,3046.92,2853.00,3210.98,600.29,614.79,43.85,0000 0000 0000 0000 000000
2017-11-28 09:07:56,0.02,1.14,0.00,15.44,18.69,21.87,14.40,48.81,1021.50,2063.00,3046.36,2852.98,3210.74,599.93,614.52,43.90,0000 0000 0000 0000 000000
2017-11-28 09:12:57,0.02,1.14,0.00,15.44,18.69,21.87,14.37,48.97,1021.51,2063.00,3046.01,2852.70,3210.08,599.70,614.33,43.96,0000 0000 0000 0000 000000
2017-11-28 09:17:58,0.01,1.14,0.00,15.45,18.70,21.84,14.42,48.97,1021.54,2063.00,3045.98,2852.17,3210.00,600.23,614.82,44.01,0000 0000 0000 0000 000000
2017-11-28 09:23:00,0.01,1.14,0.00,15.44,18.72,21.87,14.49,48.88,1021.85,2063.00,3045.51,2852.01,3209.97,600.26,615.06,44.06,0000 0000 0000 0000 000000
2017-11-28 09:28:01,0.01,1.14,0.00,15.44,18.72,21.87,14.53,48.92,1021.68,2063.00,3045.02,2852.00,3209.49,600.28,614.97,44.11,0000 0000 0000 0000 000000
2017-11-28 09:33:03,0.00,1.14,0.00,15.45,18.72,21.84,14.43,48.79,1021.55,2063.00,3044.99,2851.98,3209.06,600.25,614.85,44.16,0000 0000 0000 0000 000000
2017-11-28 09:38:04,0.02,1.14,0.00,15.46,18.72,21.85,14.36,48.85,1021.51,2063.00,3044.61,2851.72,3209.00,599.73,614.27,44.21,0000 0000 0000 0000 000000
2017-11-28 09:43:05,0.01,1.14,0.00,15.45,18.73,21.87,14.41,48.83,1021.62,2063.00,3044.05,2851.12,3208.93,600.15,614.78,44.26,0000 0000 0000 0000 000000
2017-11-28 09:48:06,0.01,1.14,0.00,15.47,18.74,21.87,14.38,48.79,1021.71,2062.99,3044.00,2851.03,3208.46,599.90,614.70,44.31,0000 0000 0000 0000 000000
2017-11-28 09:53:08,0.00,1.14,0.00,15.46,18.74,21.88,14.37,48.93,1021.91,2062.99,3043.92,2851.00,3208.08,599.71,614.41,44.36,0000 0000 0000 0000 000000
2017-11-28 09:58:09,0.01,1.14,0.00,15.46,18.74,21.84,14.42,48.98,1021.92,2062.99,3043.22,2851.00,3207.99,599.98,614.77,44.41,0000 0000 0000 0000 000000
2017-11-28 10:03:11,0.00,1.14,0.00,15.45,18.74,21.89,14.44,49.00,1021.92,2062.98,3043.00,2850.94,3207.97,600.04,614.94,44.46,0000 0000 0000 0000 000000
2017-11-28 10:08:12,0.02,1.14,0.00,15.44,18.74,21.89,14.43,49.17,1021.97,2062.98,3043.00,2850.58,3207.51,599.74,614.75,44.51,0000 0000 0000 0000 000000
2017-11-28 10:13:14,0.02,1.15,0.00,15.43,18.74,21.90,14.46,49.16,1021.96,2062.98,3042.82,2850.13,3207.02,600.09,614.96,44.56,0000 0000 0000 0000 000000
2017-11-28 10:18:15,0.01,1.15,0.00,15.44,18.74,21.90,14.41,49.17,1021.94,2062.95,3042.11,2850.00,3206.99,599.91,614.80,44.61,0000 0000 0000 0000 000000
2017-11-28 10:23:16,0.00,1.15,0.00,15.44,18.74,21.96,14.39,49.32,1021.82,2062.97,3041.99,2850.00,3206.95,599.88,614.83,44.66,0000 0000 0000 0000 000000
2017-11-28 10:28:17,0.01,1.15,0.00,15.42,18.74,21.91,14.34,49.29,1021.79,2062.97,3041.97,2849.97,3206.30,599.76,614.68,44.71,0000 0000 0000 0000 000000
2017-11-28 10:33:19,0.01,1.15,0.00,15.39,18.74,21.90,14.36,49.10,1021.95,2062.97,3041.38,2849.89,3206.03,599.84,614.80,44.76,0000 0000 0000 0000 000000
2017-11-28 10:38:20,0.02,1.15,0.00,15.39,18.74,21.96,14.50,49.32,1021.84,2062.97,3041.01,2849.38,3205.99,600.17,615.06,44.81,0000 0000 0000 0000 000000
2017-11-28 10:43:21,0.01,1.15,0.00,15.39,18.74,21.96,14.43,49.33,1021.75,2062.97,3041.00,2849.05,3205.96,599.92,614.74,44.87,0000 0000 0000 0000 000000
2017-11-28 10:48:22,0.00,1.15,0.00,15.37,18.74,21.97,14.46,49.27,1021.95,2062.96,3040.91,2849.01,3205.73,600.05,615.01,44.92,0000 0000 0000 0000 000000
2017-11-28 10:53:23,0.02,1.15,0.00,15.35,18.74,22.02,14.37,49.36,1021.84,2062.97,3040.29,2849.00,3205.18,599.86,614.90,44.97,0000 0000 0000 0000 000000
2017-11-28 10:58:24,0.00,1.15,0.00,15.33,18.73,21.99,14.47,49.44,1021.93,2062.96,3040.01,2848.99,3205.02,599.77,614.76,45.02,0000 0000 0000 0000 000000
2017-11-28 11:03:26,0.00,1.15,0.00,15.33,18.72,21.97,14.51,49.35,1021.99,2062.96,3039.99,2848.94,3204.99,600.50,615.60,45.07,0000 0000 0000 0000 000000
2017-11-28 11:08:27,0.01,1.15,0.00,15.30,18.72,22.02,14.54,49.43,1021.99,2062.98,3039.88,2848.77,3204.88,599.97,615.05,45.12,0000 0000 0000 0000 000000
2017-11-28 11:13:28,0.04,1.15,0.00,15.28,18.72,21.99,14.52,49.31,1021.99,2062.99,3039.17,2848.18,3204.30,600.25,615.33,45.17,0000 0000 0000 0000 000000
2017-11-28 11:18:29,0.00,1.15,0.00,15.27,18.71,22.08,14.46,49.34,1021.99,2062.99,3039.01,2848.04,3204.07,600.25,615.46,45.22,0000 0000 0000 0000 000000
2017-11-28 11:23:31,0.00,1.16,0.00,15.25,18.69,21.99,14.43,49.47,1021.99,2062.99,3038.96,2848.00,3204.01,599.54,614.79,45.27,0000 0000 0000 0000 000000
2017-11-28 11:28:32,0.00,1.16,0.00,15.24,18.69,21.98,14.46,49.39,1022.06,2062.99,3038.64,2848.00,3203.99,599.80,615.21,45.32,0000 0000 0000 0000 000000
2017-11-28 11:33:33,0.01,1.16,0.00,15.22,18.69,22.01,14.35,49.46,1022.05,2062.99,3038.05,2847.98,3203.78,599.55,614.92,45.37,0000 0000 0000 0000 000000
2017-11-28 11:38:35,0.01,1.16,0.00,15.19,18.67,22.05,14.39,49.52,1022.01,2062.99,3037.99,2847.81,3203.15,599.68,615.17,45.42,0000 0000 0000 0000 000000
2017-11-28 11:43:36,0.01,1.16,0.00,15.19,18.67,21.99,14.41,49.47,1022.00,2062.99,3037.84,2847.39,3203.00,599.53,615.17,45.47,0000 0000 0000 0000 000000
2017-11-28 11:48:38,0.02,1.16,0.00,15.17,18.65,21.97,14.47,49.34,1022.01,2062.99,3037.14,2847.05,3203.00,599.71,615.16,45.52,0000 0000 0000 0000 000000
2017-11-28 11:53:39,0.00,1.16,0.00,15.14,18.64,22.03,14.56,49.57,1021.99,2062.99,3037.01,2847.02,3202.98,600.28,615.66,45.57,0000 0000 0000 0000 000000
2017-11-28 11:58:40,0.00,1.16,0.00,15.13,18.63,21.94,14.52,49.38,1022.02,2062.99,3037.00,2847.01,3202.89,600.28,615.90,45.62,0000 0000 0000 0000 000000
2017-11-28 12:03:42,0.02,1.16,0.00,15.11,18.62,21.97,14.39,49.42,1022.01,2062.99,3036.63,2846.99,3202.23,599.68,615.40,45.67,0000 0000 0000 0000 000000
2017-11-28 12:08:43,0.01,1.16,0.00,15.09,18.61,21.96,14.47,49.41,1022.05,2063.00,3036.09,2846.96,3202.00,600.08,615.77,45.72,0000 0000 0000 0000 000000
2017-11-28 12:13:45,0.02,1.16,0.00,15.08,18.59,21.97,14.50,49.24,1022.19,2063.00,3035.99,2846.63,3201.98,600.21,616.00,45.77,0000 0000 0000 0000 000000
2017-11-28 12:18:46,0.01,1.16,0.00,15.08,18.59,21.97,14.51,49.24,1022.38,2063.01,3035.88,2846.14,3201.91,600.08,615.97,45.83,0000 0000 0000 0000 000000
2017-11-28 12:23:46,0.02,1.16,0.00,15.08,18.57,21.92,14.44,49.27,1022.46,2063.01,3035.20,2846.02,3201.35,600.15,616.10,45.88,0000 0000 0000 0000 000000
2017-11-28 12:28:48,0.00,1.16,0.00,15.08,18.57,21.90,14.42,49.29,1022.48,2063.05,3035.02,2846.01,3201.04,599.91,615.90,45.93,0000 0000 0000 0000 000000
2017-11-28 12:33:49,-0.00,1.16,0.00,15.05,18.56,21.87,14.45,49.32,1022.48,2063.03,3034.99,2846.00,3201.00,599.94,615.95,45.98,0000 0000 0000 0000 000000
2017-11-28 12:38:50,0.01,1.16,0.00,14.90,18.54,22.01,14.47,49.48,1022.48,2063.11,3034.89,2846.00,3201.00,599.85,616.09,46.03,0000 0000 0000 0000 000000
2017-11-28 12:43:52,0.02,1.17,0.00,14.72,18.53,22.14,14.52,49.40,1022.48,2063.16,3034.19,2845.97,3200.97,599.82,616.66,46.08,0000 0000 0000 0000 000000
2017-11-28 12:48:53,0.04,1.17,0.00,14.54,18.51,21.97,14.63,49.50,1022.48,2063.51,3034.00,2845.93,3200.95,600.16,617.18,46.13,0000 0000 0000 0000 000000
2017-11-28 12:53:55,0.03,1.17,0.00,14.36,18.48,21.69,14.53,49.52,1022.51,2063.86,3034.00,2845.94,3200.78,599.69,617.21,46.18,0000 0000 0000 0000 000000